Time,TemperatureF,DewpointF,PressureIn,WindDirection,WindDirectionDegrees,WindSpeedMPH,WindSpeedGustMPH,Humidity,HourlyPrecipIn,Conditions,Clouds,dailyrainin,SoftwareType,DateUTC
2013-06-30 00:03:00,61.2,53.2,29.91,WNW,287,3.6,3.6,75,0.00,,---,0.00,VWS V14.01,2013-06-29 22:03:00,
2013-06-30 00:08:00,61.0,53.0,29.91,WNW,287,2.7,3.6,75,0.00,,---,0.00,VWS V14.01,2013-06-29 22:08:00,
2013-06-30 00:13:00,60.8,52.8,29.91,WNW,287,0.0,4.0,75,0.00,,---,0.00,VWS V14.01,2013-06-29 22:13:00,
2013-06-30 00:18:00,60.6,53.0,29.91,WNW,287,3.6,3.6,76,0.00,,---,0.00,VWS V14.01,2013-06-29 22:18:00,
2013-06-30 00:23:00,60.4,52.8,29.91,WNW,287,0.0,4.0,76,0.00,,---,0.00,VWS V14.01,2013-06-29 22:23:00,
2013-06-30 00:28:00,60.3,52.7,29.91,West,275,0.0,4.5,76,0.00,,---,0.00,VWS V14.01,2013-06-29 22:28:00,
2013-06-30 00:33:00,60.3,52.7,29.91,West,275,0.0,0.0,76,0.00,,---,0.00,VWS V14.01,2013-06-29 22:33:00,
2013-06-30 00:38:00,60.1,52.5,29.91,West,275,0.0,0.0,76,0.00,,---,0.00,VWS V14.01,2013-06-29 22:38:00,
2013-06-30 00:43:00,60.1,52.9,29.91,West,275,0.0,0.0,77,0.00,,---,0.00,VWS V14.01,2013-06-29 22:43:00,
2013-06-30 00:48:00,59.7,52.5,29.91,West,276,4.0,5.4,77,0.00,,---,0.00,VWS V14.01,2013-06-29 22:48:00,
2013-06-30 00:53:00,59.7,52.5,29.91,West,277,0.0,3.1,77,0.00,,---,0.00,VWS V14.01,2013-06-29 22:53:00,
2013-06-30 00:58:00,59.7,52.9,29.91,West,278,0.0,3.1,78,0.00,,---,0.00,VWS V14.01,2013-06-29 22:58:00,
2013-06-30 01:03:00,59.7,52.9,29.91,West,278,0.0,0.0,78,0.00,,---,0.00,VWS V14.01,2013-06-29 23:03:00,
2013-06-30 01:08:00,59.7,52.9,29.91,West,277,0.0,0.0,78,0.00,,---,0.00,VWS V14.01,2013-06-29 23:08:00,
2013-06-30 01:13:00,59.4,52.2,29.91,West,279,0.0,0.0,77,0.00,,---,0.00,VWS V14.01,2013-06-29 23:13:00,
2013-06-30 01:18:00,59.0,52.2,29.91,NW,323,0.0,0.0,78,0.00,,---,0.00,VWS V14.01,2013-06-29 23:18:00,
2013-06-30 01:23:00,58.8,52.0,29.91,NW,325,0.0,0.0,78,0.00,,---,0.00,VWS V14.01,2013-06-29 23:23:00,
2013-06-30 01:29:00,58.8,52.0,29.91,NW,325,0.0,0.0,78,0.00,,---,0.00,VWS V14.01,2013-06-29 23:29:00,
2013-06-30 01:34:00,58.6,52.2,29.91,NW,325,0.0,0.0,79,0.00,,---,0.00,VWS V14.01,2013-06-29 23:34:00,
2013-06-30 01:39:00,58.6,52.2,29.91,North,351,0.0,0.0,79,0.00,,---,0.00,VWS V14.01,2013-06-29 23:39:00,
2013-06-30 01:44:00,58.5,52.0,29.91,North,351,0.0,0.0,79,0.00,,---,0.00,VWS V14.01,2013-06-29 23:44:00,
2013-06-30 01:49:00,58.5,52.3,29.91,NNW,336,0.0,0.0,80,0.00,,---,0.00,VWS V14.01,2013-06-29 23:49:00,
2013-06-30 01:54:00,58.5,52.3,29.91,North,351,0.0,2.7,80,0.00,,---,0.00,VWS V14.01,2013-06-29 23:54:00,
2013-06-30 01:59:00,58.3,52.5,29.91,NNW,327,0.0,0.0,81,0.00,,---,0.00,VWS V14.01,2013-06-29 23:59:00,
2013-06-30 02:04:00,58.3,52.5,29.91,WNW,297,4.5,5.4,81,0.00,,---,0.00,VWS V14.01,2013-06-30 00:04:00,
2013-06-30 02:09:00,58.3,52.8,29.91,WNW,300,4.5,4.5,82,0.00,,---,0.00,VWS V14.01,2013-06-30 00:09:00,
2013-06-30 02:14:00,58.5,53.0,29.91,WNW,283,4.5,5.4,82,0.00,,---,0.00,VWS V14.01,2013-06-30 00:14:00,
2013-06-30 02:19:00,58.5,53.0,29.91,West,281,3.6,4.0,82,0.00,,---,0.00,VWS V14.01,2013-06-30 00:19:00,
2013-06-30 02:24:00,58.6,53.2,29.91,West,281,2.7,3.1,82,0.00,,---,0.00,VWS V14.01,2013-06-30 00:24:00,
2013-06-30 02:29:00,58.6,53.2,29.91,West,281,0.0,0.0,82,0.00,,---,0.00,VWS V14.01,2013-06-30 00:29:00,
2013-06-30 02:34:00,58.6,53.2,29.91,West,281,0.0,3.1,82,0.00,,---,0.00,VWS V14.01,2013-06-30 00:34:00,
2013-06-30 02:39:00,58.5,53.0,29.91,WNW,291,0.0,3.6,82,0.00,,---,0.00,VWS V14.01,2013-06-30 00:39:00,
2013-06-30 02:44:00,58.5,53.3,29.91,WNW,288,3.1,3.6,83,0.00,,---,0.00,VWS V14.01,2013-06-30 00:44:00,
2013-06-30 02:49:00,58.5,53.3,29.91,WNW,288,0.0,0.0,83,0.00,,---,0.00,VWS V14.01,2013-06-30 00:49:00,
2013-06-30 02:54:00,58.5,53.3,29.91,WNW,288,0.0,0.0,83,0.00,,---,0.00,VWS V14.01,2013-06-30 00:54:00,
2013-06-30 02:59:00,58.3,53.2,29.91,WNW,288,0.0,0.0,83,0.00,,---,0.00,VWS V14.01,2013-06-30 00:59:00,
2013-06-30 03:04:00,57.9,52.8,29.91,SSE,149,0.0,0.0,83,0.00,,---,0.00,VWS V14.01,2013-06-30 01:04:00,
2013-06-30 03:09:00,57.7,53.0,29.91,SSE,149,0.0,0.0,84,0.00,,---,0.00,VWS V14.01,2013-06-30 01:09:00,
2013-06-30 03:14:00,57.6,52.8,29.91,SSE,149,0.0,0.0,84,0.00,,---,0.00,VWS V14.01,2013-06-30 01:14:00,
2013-06-30 03:19:00,57.6,52.8,29.91,SSE,149,0.0,0.0,84,0.00,,---,0.00,VWS V14.01,2013-06-30 01:19:00,
2013-06-30 03:24:00,57.6,52.8,29.91,SSE,149,0.0,0.0,84,0.00,,---,0.00,VWS V14.01,2013-06-30 01:24:00,
2013-06-30 03:29:00,57.4,52.9,29.91,SSE,149,0.0,0.0,85,0.00,,---,0.00,VWS V14.01,2013-06-30 01:29:00,
2013-06-30 03:34:00,57.4,52.9,29.91,SSE,149,0.0,0.0,85,0.00,,---,0.00,VWS V14.01,2013-06-30 01:34:00,
2013-06-30 03:39:00,57.4,52.9,29.91,SSE,149,0.0,0.0,85,0.00,,---,0.00,VWS V14.01,2013-06-30 01:39:00,
2013-06-30 03:44:00,57.2,52.7,29.91,SSE,149,0.0,0.0,85,0.00,,---,0.00,VWS V14.01,2013-06-30 01:44:00,
2013-06-30 03:49:00,57.2,52.7,29.91,SSE,149,0.0,0.0,85,0.00,,---,0.00,VWS V14.01,2013-06-30 01:49:00,
2013-06-30 03:54:00,57.0,52.6,29.91,SSE,149,0.0,0.0,85,0.00,,---,0.00,VWS V14.01,2013-06-30 01:54:00,
2013-06-30 03:59:00,57.2,52.7,29.91,SSE,149,0.0,0.0,85,0.00,,---,0.00,VWS V14.01,2013-06-30 01:59:00,
2013-06-30 04:04:00,57.2,52.7,29.91,SSE,149,0.0,0.0,85,0.00,,---,0.00,VWS V14.01,2013-06-30 02:04:00,
2013-06-30 04:09:00,57.2,52.7,29.91,SSE,149,0.0,0.0,85,0.00,,---,0.00,VWS V14.01,2013-06-30 02:09:00,
2013-06-30 04:14:00,57.2,52.7,29.91,WSW,243,4.0,4.5,85,0.00,,---,0.00,VWS V14.01,2013-06-30 02:14:00,
2013-06-30 04:19:00,57.2,52.7,29.91,WSW,243,0.0,0.0,85,0.00,,---,0.00,VWS V14.01,2013-06-30 02:19:00,
2013-06-30 04:24:00,57.0,52.6,29.91,WSW,243,0.0,0.0,85,0.00,,---,0.00,VWS V14.01,2013-06-30 02:24:00,
2013-06-30 04:29:00,56.8,52.4,29.91,WSW,243,0.0,0.0,85,0.00,,---,0.00,VWS V14.01,2013-06-30 02:29:00,
2013-06-30 04:34:00,56.7,52.2,29.91,WSW,243,0.0,0.0,85,0.00,,---,0.00,VWS V14.01,2013-06-30 02:34:00,
2013-06-30 04:39:00,56.7,52.5,29.91,WSW,243,0.0,0.0,86,0.00,,---,0.00,VWS V14.01,2013-06-30 02:39:00,
2013-06-30 04:44:00,56.7,52.5,29.91,WSW,243,0.0,0.0,86,0.00,,---,0.00,VWS V14.01,2013-06-30 02:44:00,
2013-06-30 04:49:00,56.7,52.5,29.91,WSW,243,0.0,0.0,86,0.00,,---,0.00,VWS V14.01,2013-06-30 02:49:00,
2013-06-30 04:54:00,56.7,52.8,29.91,WSW,241,0.0,0.0,87,0.00,,---,0.00,VWS V14.01,2013-06-30 02:54:00,
2013-06-30 04:59:00,56.8,53.0,29.91,WSW,241,0.0,0.0,87,0.00,,---,0.00,VWS V14.01,2013-06-30 02:59:00,
2013-06-30 05:04:00,56.8,53.0,29.91,WSW,241,0.0,0.0,87,0.00,,---,0.00,VWS V14.01,2013-06-30 03:04:00,
2013-06-30 05:09:00,56.8,53.0,29.91,WSW,241,0.0,0.0,87,0.00,,---,0.00,VWS V14.01,2013-06-30 03:09:00,
2013-06-30 05:14:00,57.0,53.2,29.91,WSW,241,0.0,0.0,87,0.00,,---,0.00,VWS V14.01,2013-06-30 03:14:00,
2013-06-30 05:19:00,57.2,53.4,29.91,WSW,241,0.0,0.0,87,0.00,,---,0.00,VWS V14.01,2013-06-30 03:19:00,
2013-06-30 05:24:00,57.2,53.4,29.91,WSW,241,0.0,0.0,87,0.00,,---,0.00,VWS V14.01,2013-06-30 03:24:00,
2013-06-30 05:29:00,57.2,53.1,29.91,WSW,240,0.0,0.0,86,0.00,,---,0.00,VWS V14.01,2013-06-30 03:29:00,
2013-06-30 05:34:00,57.4,53.2,29.91,WSW,240,0.0,0.0,86,0.00,,---,0.00,VWS V14.01,2013-06-30 03:34:00,
2013-06-30 05:40:00,57.7,53.6,29.91,WSW,240,0.0,0.0,86,0.00,,---,0.00,VWS V14.01,2013-06-30 03:40:00,
2013-06-30 05:45:00,58.1,53.9,29.91,WSW,240,0.0,0.0,86,0.00,,---,0.00,VWS V14.01,2013-06-30 03:45:00,
2013-06-30 05:50:00,57.9,53.4,29.91,WSW,240,0.0,0.0,85,0.00,,---,0.00,VWS V14.01,2013-06-30 03:50:00,
2013-06-30 05:55:00,57.7,53.3,29.91,WSW,241,0.0,0.0,85,0.00,,---,0.00,VWS V14.01,2013-06-30 03:55:00,
2013-06-30 06:00:00,57.7,53.0,29.91,NNW,338,0.0,0.0,84,0.00,,---,0.00,VWS V14.01,2013-06-30 04:00:00,
2013-06-30 06:01:00,57.7,53.0,29.91,NNW,338,0.0,0.0,84,0.00,,---,0.00,VWS V14.01,2013-06-30 04:01:00,
2013-06-30 06:06:00,58.1,53.3,29.91,WNW,282,2.7,4.9,84,0.00,,---,0.00,VWS V14.01,2013-06-30 04:06:00,
2013-06-30 06:11:00,58.8,54.0,29.94,West,276,2.7,5.4,84,0.00,,---,0.00,VWS V14.01,2013-06-30 04:11:00,
2013-06-30 06:16:00,59.4,54.2,29.94,WNW,282,5.8,6.7,83,0.00,,---,0.00,VWS V14.01,2013-06-30 04:16:00,
2013-06-30 06:21:00,59.9,54.7,29.94,WNW,284,3.6,5.4,83,0.00,,---,0.00,VWS V14.01,2013-06-30 04:21:00,
2013-06-30 06:26:00,59.5,53.7,29.94,WNW,288,3.6,5.4,81,0.00,,---,0.00,VWS V14.01,2013-06-30 04:26:00,
2013-06-30 06:31:00,59.7,53.9,29.94,WNW,282,4.9,5.8,81,0.00,,---,0.00,VWS V14.01,2013-06-30 04:31:00,
2013-06-30 06:36:00,60.1,54.2,29.94,WNW,283,4.9,4.9,81,0.00,,---,0.00,VWS V14.01,2013-06-30 04:36:00,
2013-06-30 06:41:00,60.3,53.7,29.91,WNW,283,3.6,4.9,79,0.00,,---,0.00,VWS V14.01,2013-06-30 04:41:00,
2013-06-30 06:46:00,59.5,52.7,29.91,WNW,303,2.7,2.7,78,0.00,,---,0.00,VWS V14.01,2013-06-30 04:46:00,
2013-06-30 06:51:00,59.2,52.7,29.91,WNW,290,0.0,0.0,79,0.00,,---,0.00,VWS V14.01,2013-06-30 04:51:00,
2013-06-30 06:56:00,59.2,52.7,29.91,WNW,290,0.0,0.0,79,0.00,,---,0.00,VWS V14.01,2013-06-30 04:56:00,
2013-06-30 07:01:00,59.5,53.4,29.91,WNW,290,0.0,0.0,80,0.00,,---,0.00,VWS V14.01,2013-06-30 05:01:00,
2013-06-30 07:06:00,60.6,54.4,29.91,WNW,290,0.0,0.0,80,0.00,,---,0.00,VWS V14.01,2013-06-30 05:06:00,
2013-06-30 07:11:00,61.5,55.3,29.94,WNW,290,0.0,4.0,80,0.00,,---,0.00,VWS V14.01,2013-06-30 05:11:00,
2013-06-30 07:16:00,61.7,54.8,29.94,WNW,290,0.0,0.0,78,0.00,,---,0.00,VWS V14.01,2013-06-30 05:16:00,
2013-06-30 07:21:00,62.8,55.8,29.94,WNW,290,0.0,0.0,78,0.00,,---,0.00,VWS V14.01,2013-06-30 05:21:00,
2013-06-30 07:26:00,64.2,56.5,29.94,WNW,290,4.0,4.5,76,0.00,,---,0.00,VWS V14.01,2013-06-30 05:26:00,
2013-06-30 07:31:00,65.8,57.0,29.94,WNW,290,4.5,4.9,73,0.00,,---,0.00,VWS V14.01,2013-06-30 05:31:00,
2013-06-30 07:36:00,66.7,57.0,29.94,WNW,290,0.0,3.6,71,0.00,,---,0.00,VWS V14.01,2013-06-30 05:36:00,
2013-06-30 07:41:00,68.0,57.1,29.94,WNW,290,0.0,0.0,68,0.00,,---,0.00,VWS V14.01,2013-06-30 05:41:00,
2013-06-30 07:46:00,68.5,56.3,29.94,WNW,290,0.0,0.0,65,0.00,,---,0.00,VWS V14.01,2013-06-30 05:46:00,
2013-06-30 07:51:00,69.3,56.6,29.94,WNW,290,2.7,2.7,64,0.00,,---,0.00,VWS V14.01,2013-06-30 05:51:00,
2013-06-30 07:56:00,68.9,55.4,29.94,WNW,290,0.0,0.0,62,0.00,,---,0.00,VWS V14.01,2013-06-30 05:56:00,
2013-06-30 08:01:00,67.8,53.4,29.94,WNW,289,3.6,4.5,60,0.00,,---,0.00,VWS V14.01,2013-06-30 06:01:00,
2013-06-30 08:06:00,68.2,54.7,29.94,WNW,289,3.6,4.5,62,0.00,,---,0.00,VWS V14.01,2013-06-30 06:06:00,
2013-06-30 08:11:00,69.6,56.5,29.94,West,273,4.0,4.9,63,0.00,,---,0.00,VWS V14.01,2013-06-30 06:11:00,
2013-06-30 08:16:00,70.5,56.4,29.94,West,273,4.9,5.4,61,0.00,,---,0.00,VWS V14.01,2013-06-30 06:16:00,
2013-06-30 08:21:00,70.9,55.4,29.94,West,270,4.9,5.4,58,0.00,,---,0.00,VWS V14.01,2013-06-30 06:21:00,
2013-06-30 08:26:00,71.4,55.4,29.94,West,277,3.1,4.9,57,0.00,,---,0.00,VWS V14.01,2013-06-30 06:26:00,
2013-06-30 08:31:00,71.4,54.9,29.94,West,276,4.0,5.4,56,0.00,,---,0.00,VWS V14.01,2013-06-30 06:31:00,
2013-06-30 08:36:00,72.1,55.6,29.94,WNW,292,4.9,5.4,56,0.00,,---,0.00,VWS V14.01,2013-06-30 06:36:00,
2013-06-30 08:41:00,72.7,55.1,29.94,West,270,0.0,3.6,54,0.00,,---,0.00,VWS V14.01,2013-06-30 06:41:00,
2013-06-30 08:46:00,73.2,55.1,29.94,West,280,3.6,6.7,53,0.00,,---,0.00,VWS V14.01,2013-06-30 06:46:00,
2013-06-30 08:51:00,73.8,55.6,29.94,West,278,4.5,5.4,53,0.00,,---,0.00,VWS V14.01,2013-06-30 06:51:00,
2013-06-30 08:56:00,73.8,54.0,29.94,West,263,3.6,5.8,50,0.00,,---,0.00,VWS V14.01,2013-06-30 06:56:00,
2013-06-30 09:01:00,73.8,54.0,29.94,South,177,4.0,5.4,50,0.00,,---,0.00,VWS V14.01,2013-06-30 07:01:00,
2013-06-30 09:06:00,72.9,53.2,29.94,WNW,288,3.6,7.4,50,0.00,,---,0.00,VWS V14.01,2013-06-30 07:06:00,
2013-06-30 09:11:00,73.0,52.8,29.94,SSE,149,2.7,4.0,49,0.00,,---,0.00,VWS V14.01,2013-06-30 07:11:00,
2013-06-30 09:16:00,73.4,53.1,29.94,WNW,283,2.7,4.9,49,0.00,,---,0.00,VWS V14.01,2013-06-30 07:16:00,
2013-06-30 09:21:00,73.9,53.0,29.94,NW,320,3.6,3.6,48,0.00,,---,0.00,VWS V14.01,2013-06-30 07:21:00,
2013-06-30 09:26:00,72.5,48.8,29.94,WNW,283,9.2,9.2,43,0.00,,---,0.00,VWS V14.01,2013-06-30 07:26:00,
2013-06-30 09:31:00,72.9,49.1,29.94,NE,45,4.5,4.5,43,0.00,,---,0.00,VWS V14.01,2013-06-30 07:31:00,
2013-06-30 09:36:00,72.1,47.8,29.94,North,351,3.6,4.0,42,0.00,,---,0.00,VWS V14.01,2013-06-30 07:36:00,
2013-06-30 09:41:00,72.0,47.6,29.94,WNW,291,6.3,6.7,42,0.00,,---,0.00,VWS V14.01,2013-06-30 07:41:00,
2013-06-30 09:46:00,71.8,47.5,29.94,NNW,328,3.6,5.4,42,0.00,,---,0.00,VWS V14.01,2013-06-30 07:46:00,
2013-06-30 09:51:00,72.1,47.8,29.94,West,277,4.0,4.5,42,0.00,,---,0.00,VWS V14.01,2013-06-30 07:51:00,
2013-06-30 09:56:00,73.2,48.8,29.94,West,277,9.6,9.6,42,0.00,,---,0.00,VWS V14.01,2013-06-30 07:56:00,
2013-06-30 10:01:00,75.2,49.9,29.94,NW,316,4.5,8.3,41,0.00,,---,0.00,VWS V14.01,2013-06-30 08:01:00,
2013-06-30 10:06:00,75.7,49.0,29.94,WNW,288,7.4,10.5,39,0.00,,---,0.00,VWS V14.01,2013-06-30 08:06:00,
2013-06-30 10:11:00,76.6,49.2,29.94,West,281,8.3,10.1,38,0.00,,---,0.00,VWS V14.01,2013-06-30 08:11:00,
2013-06-30 10:16:00,76.5,46.8,29.94,WNW,284,9.2,10.5,35,0.00,,---,0.00,VWS V14.01,2013-06-30 08:16:00,
2013-06-30 10:21:00,75.7,46.2,29.94,WNW,294,5.8,7.4,35,0.00,,---,0.00,VWS V14.01,2013-06-30 08:21:00,
2013-06-30 10:26:00,74.5,45.8,29.94,North,351,4.9,5.8,36,0.00,,---,0.00,VWS V14.01,2013-06-30 08:26:00,
2013-06-30 10:31:00,73.6,47.8,29.94,West,272,8.7,9.2,40,0.00,,---,0.00,VWS V14.01,2013-06-30 08:31:00,
2013-06-30 10:36:00,75.2,49.9,29.94,WNW,284,7.8,11.2,41,0.00,,---,0.00,VWS V14.01,2013-06-30 08:36:00,
2013-06-30 10:41:00,76.6,49.2,29.94,West,281,6.3,7.4,38,0.00,,---,0.00,VWS V14.01,2013-06-30 08:41:00,
2013-06-30 10:46:00,76.3,46.7,29.94,North,351,4.9,5.8,35,0.00,,---,0.00,VWS V14.01,2013-06-30 08:46:00,
2013-06-30 10:51:00,75.2,46.4,29.94,North,351,5.8,5.8,36,0.00,,---,0.00,VWS V14.01,2013-06-30 08:51:00,
2013-06-30 10:56:00,74.7,48.1,29.94,West,274,6.9,6.9,39,0.00,,---,0.00,VWS V14.01,2013-06-30 08:56:00,
2013-06-30 11:01:00,75.9,49.9,29.94,WNW,284,6.9,8.7,40,0.00,,---,0.00,VWS V14.01,2013-06-30 09:01:00,
2013-06-30 11:06:00,76.5,49.7,29.94,WNW,291,10.1,10.5,39,0.00,,---,0.00,VWS V14.01,2013-06-30 09:06:00,
2013-06-30 11:11:00,76.3,49.5,29.94,West,280,8.7,8.7,39,0.00,,---,0.00,VWS V14.01,2013-06-30 09:11:00,
2013-06-30 11:16:00,76.1,49.4,29.94,West,278,7.8,9.6,39,0.00,,---,0.00,VWS V14.01,2013-06-30 09:16:00,
2013-06-30 11:21:00,76.6,49.2,29.94,West,275,10.5,11.2,38,0.00,,---,0.00,VWS V14.01,2013-06-30 09:21:00,
2013-06-30 11:26:00,77.0,48.0,29.94,WNW,286,11.0,12.1,36,0.00,,---,0.00,VWS V14.01,2013-06-30 09:26:00,
2013-06-30 11:31:00,77.0,47.3,29.94,West,268,9.2,11.0,35,0.00,,---,0.00,VWS V14.01,2013-06-30 09:31:00,
2013-06-30 11:36:00,77.0,47.3,29.94,West,280,8.7,10.5,35,0.00,,---,0.00,VWS V14.01,2013-06-30 09:36:00,
2013-06-30 11:41:00,77.4,47.6,29.94,West,270,11.6,11.6,35,0.00,,---,0.00,VWS V14.01,2013-06-30 09:41:00,
2013-06-30 11:46:00,77.5,47.8,29.94,West,268,5.8,5.8,35,0.00,,---,0.00,VWS V14.01,2013-06-30 09:46:00,
2013-06-30 11:51:00,77.0,47.3,29.94,West,278,8.3,9.6,35,0.00,,---,0.00,VWS V14.01,2013-06-30 09:51:00,
2013-06-30 11:56:00,76.8,47.9,29.94,West,267,8.3,10.1,36,0.00,,---,0.00,VWS V14.01,2013-06-30 09:56:00,
2013-06-30 12:01:00,76.8,47.9,29.94,South,191,5.4,10.1,36,0.00,,---,0.00,VWS V14.01,2013-06-30 10:01:00,
2013-06-30 12:06:00,76.8,47.1,29.94,WNW,283,7.4,12.1,35,0.00,,---,0.00,VWS V14.01,2013-06-30 10:06:00,
2013-06-30 12:11:00,76.6,47.7,29.94,West,266,10.5,14.8,36,0.00,,---,0.00,VWS V14.01,2013-06-30 10:11:00,
2013-06-30 12:16:00,76.5,47.5,29.94,WNW,293,8.7,12.1,36,0.00,,---,0.00,VWS V14.01,2013-06-30 10:16:00,
2013-06-30 12:21:00,76.8,47.9,29.94,WNW,285,11.2,13.0,36,0.00,,---,0.00,VWS V14.01,2013-06-30 10:21:00,
2013-06-30 12:26:00,76.6,47.7,29.94,WNW,283,5.4,9.2,36,0.00,,---,0.00,VWS V14.01,2013-06-30 10:26:00,
2013-06-30 12:31:00,76.8,47.9,29.94,West,275,7.4,15.4,36,0.00,,---,0.00,VWS V14.01,2013-06-30 10:31:00,
2013-06-30 12:36:00,76.5,47.5,29.94,WNW,289,13.4,13.4,36,0.00,,---,0.00,VWS V14.01,2013-06-30 10:36:00,
2013-06-30 12:41:00,76.8,47.1,29.94,NW,326,8.7,11.6,35,0.00,,---,0.00,VWS V14.01,2013-06-30 10:41:00,
2013-06-30 12:46:00,76.8,47.1,29.94,South,169,6.7,13.4,35,0.00,,---,0.00,VWS V14.01,2013-06-30 10:46:00,
2013-06-30 12:51:00,76.3,46.7,29.94,NW,311,8.7,15.4,35,0.00,,---,0.00,VWS V14.01,2013-06-30 10:51:00,
2013-06-30 12:56:00,75.9,47.8,29.91,WNW,293,9.6,11.0,37,0.00,,---,0.00,VWS V14.01,2013-06-30 10:56:00,
2013-06-30 13:01:00,75.4,48.0,29.91,West,272,11.6,16.3,38,0.00,,---,0.00,VWS V14.01,2013-06-30 11:01:00,
2013-06-30 13:06:00,74.8,48.2,29.91,WNW,299,13.4,15.2,39,0.00,,---,0.00,VWS V14.01,2013-06-30 11:06:00,
2013-06-30 13:11:00,74.5,49.3,29.94,WNW,286,13.0,15.2,41,0.00,,---,0.00,VWS V14.01,2013-06-30 11:11:00,
2013-06-30 13:16:00,74.3,49.1,29.94,WNW,296,8.7,16.8,41,0.00,,---,0.00,VWS V14.01,2013-06-30 11:16:00,
2013-06-30 13:21:00,74.1,48.9,29.94,West,268,13.9,15.9,41,0.00,,---,0.00,VWS V14.01,2013-06-30 11:21:00,
2013-06-30 13:26:00,74.3,49.1,29.91,West,263,11.0,14.3,41,0.00,,---,0.00,VWS V14.01,2013-06-30 11:26:00,
2013-06-30 13:31:00,74.7,49.4,29.91,WNW,292,20.1,20.1,41,0.00,,---,0.00,VWS V14.01,2013-06-30 11:31:00,
2013-06-30 13:36:00,74.5,48.6,29.91,WSW,248,14.3,18.1,40,0.00,,---,0.00,VWS V14.01,2013-06-30 11:36:00,
2013-06-30 13:41:00,74.7,48.8,29.91,West,275,14.8,19.9,40,0.00,,---,0.00,VWS V14.01,2013-06-30 11:41:00,
2013-06-30 13:46:00,75.0,49.1,29.91,West,277,11.6,13.0,40,0.00,,---,0.00,VWS V14.01,2013-06-30 11:46:00,
2013-06-30 13:51:00,75.4,50.1,29.91,WNW,283,15.9,18.6,41,0.00,,---,0.00,VWS V14.01,2013-06-30 11:51:00,
2013-06-30 13:56:00,75.2,49.9,29.94,West,273,15.9,19.0,41,0.00,,---,0.00,VWS V14.01,2013-06-30 11:56:00,
2013-06-30 14:01:00,75.2,50.6,29.94,WNW,288,13.0,19.0,42,0.00,,---,0.00,VWS V14.01,2013-06-30 12:01:00,
2013-06-30 14:06:00,74.8,50.2,29.94,WNW,283,12.1,21.9,42,0.00,,---,0.00,VWS V14.01,2013-06-30 12:06:00,
2013-06-30 14:11:00,74.7,51.3,29.94,West,277,23.7,23.7,44,0.00,,---,0.00,VWS V14.01,2013-06-30 12:11:00,
2013-06-30 14:16:00,74.5,51.2,29.94,NW,307,17.7,22.4,44,0.00,,---,0.00,VWS V14.01,2013-06-30 12:16:00,
2013-06-30 14:21:00,74.1,51.4,29.94,West,275,20.1,20.1,45,0.00,,---,0.00,VWS V14.01,2013-06-30 12:21:00,
2013-06-30 14:26:00,73.9,51.9,29.94,West,277,14.3,18.1,46,0.00,,---,0.00,VWS V14.01,2013-06-30 12:26:00,
2013-06-30 14:31:00,74.1,53.2,29.94,West,278,17.7,17.7,48,0.00,,---,0.00,VWS V14.01,2013-06-30 12:31:00,
2013-06-30 14:36:00,73.9,53.0,29.94,West,277,11.6,17.7,48,0.00,,---,0.00,VWS V14.01,2013-06-30 12:36:00,
2013-06-30 14:41:00,73.6,52.7,29.94,West,279,13.9,17.7,48,0.00,,---,0.00,VWS V14.01,2013-06-30 12:41:00,
2013-06-30 14:46:00,73.6,53.8,29.94,West,279,12.1,17.7,50,0.00,,---,0.00,VWS V14.01,2013-06-30 12:46:00,
2013-06-30 14:51:00,73.4,53.7,29.94,West,278,16.8,24.8,50,0.00,,---,0.00,VWS V14.01,2013-06-30 12:51:00,
2013-06-30 14:56:00,72.9,53.2,29.94,WNW,282,13.0,19.9,50,0.00,,---,0.00,VWS V14.01,2013-06-30 12:56:00,
2013-06-30 15:01:00,72.3,53.7,29.94,West,268,15.4,17.7,52,0.00,,---,0.00,VWS V14.01,2013-06-30 13:01:00,
2013-06-30 15:06:00,72.0,53.4,29.94,WNW,284,18.6,19.9,52,0.00,,---,0.00,VWS V14.01,2013-06-30 13:06:00,
2013-06-30 15:11:00,71.6,53.1,29.94,ESE,105,9.2,16.8,52,0.00,,---,0.00,VWS V14.01,2013-06-30 13:11:00,
2013-06-30 15:16:00,71.6,53.6,29.94,West,272,12.1,16.8,53,0.00,,---,0.00,VWS V14.01,2013-06-30 13:16:00,
2013-06-30 15:21:00,71.4,53.4,29.94,WNW,289,12.5,14.8,53,0.00,,---,0.00,VWS V14.01,2013-06-30 13:21:00,
2013-06-30 15:26:00,71.4,52.9,29.94,ESE,105,11.0,15.2,52,0.00,,---,0.00,VWS V14.01,2013-06-30 13:26:00,
2013-06-30 15:31:00,71.1,52.0,29.94,WNW,302,13.4,21.5,51,0.00,,---,0.00,VWS V14.01,2013-06-30 13:31:00,
2013-06-30 15:36:00,71.1,52.0,29.94,WNW,294,15.4,15.4,51,0.00,,---,0.00,VWS V14.01,2013-06-30 13:36:00,
2013-06-30 15:41:00,71.2,52.7,29.94,WNW,294,18.6,18.6,52,0.00,,---,0.00,VWS V14.01,2013-06-30 13:41:00,
2013-06-30 15:46:00,71.2,52.2,29.94,West,275,11.0,13.9,51,0.00,,---,0.00,VWS V14.01,2013-06-30 13:46:00,
2013-06-30 15:51:00,71.1,52.0,29.94,West,281,8.7,11.6,51,0.00,,---,0.00,VWS V14.01,2013-06-30 13:51:00,
2013-06-30 15:57:00,71.2,52.7,29.94,WNW,284,15.9,15.9,52,0.00,,---,0.00,VWS V14.01,2013-06-30 13:57:00,
2013-06-30 16:02:00,71.1,51.5,29.94,WNW,284,15.2,21.9,50,0.00,,---,0.00,VWS V14.01,2013-06-30 14:02:00,
2013-06-30 16:07:00,70.7,51.7,29.94,WNW,287,13.9,19.0,51,0.00,,---,0.00,VWS V14.01,2013-06-30 14:07:00,
2013-06-30 16:12:00,70.5,52.1,29.94,WNW,296,18.6,19.5,52,0.00,,---,0.00,VWS V14.01,2013-06-30 14:12:00,
2013-06-30 16:17:00,70.3,51.9,29.94,WNW,286,13.4,18.6,52,0.00,,---,0.00,VWS V14.01,2013-06-30 14:17:00,
2013-06-30 16:22:00,70.5,52.6,29.94,West,280,12.5,15.2,53,0.00,,---,0.00,VWS V14.01,2013-06-30 14:22:00,
2013-06-30 16:27:00,70.3,51.4,29.94,West,278,12.5,15.4,51,0.00,,---,0.00,VWS V14.01,2013-06-30 14:27:00,
2013-06-30 16:32:00,70.5,52.1,29.94,WNW,291,13.0,13.4,52,0.00,,---,0.00,VWS V14.01,2013-06-30 14:32:00,
2013-06-30 16:37:00,70.5,52.1,29.94,NW,307,16.8,16.8,52,0.00,,---,0.00,VWS V14.01,2013-06-30 14:37:00,
2013-06-30 16:42:00,70.5,51.5,29.94,West,275,14.8,19.9,51,0.00,,---,0.00,VWS V14.01,2013-06-30 14:42:00,
2013-06-30 16:47:00,70.3,50.8,29.94,West,269,15.2,19.9,50,0.00,,---,0.00,VWS V14.01,2013-06-30 14:47:00,
2013-06-30 16:52:00,70.2,50.7,29.94,West,275,21.5,23.7,50,0.00,,---,0.00,VWS V14.01,2013-06-30 14:52:00,
2013-06-30 16:57:00,70.0,50.5,29.94,WNW,293,17.2,25.3,50,0.00,,---,0.00,VWS V14.01,2013-06-30 14:57:00,
2013-06-30 17:02:00,69.6,50.2,29.94,WNW,293,16.3,19.0,50,0.00,,---,0.00,VWS V14.01,2013-06-30 15:02:00,
2013-06-30 17:07:00,69.4,50.5,29.94,West,278,21.0,21.0,51,0.00,,---,0.00,VWS V14.01,2013-06-30 15:07:00,
2013-06-30 17:12:00,69.4,51.1,29.94,West,267,12.1,21.9,52,0.00,,---,0.00,VWS V14.01,2013-06-30 15:12:00,
2013-06-30 17:17:00,69.3,50.9,29.94,West,275,16.8,16.8,52,0.00,,---,0.00,VWS V14.01,2013-06-30 15:17:00,
2013-06-30 17:22:00,69.4,51.1,29.94,WNW,296,4.5,15.2,52,0.00,,---,0.00,VWS V14.01,2013-06-30 15:22:00,
2013-06-30 17:27:00,69.6,51.8,29.94,WNW,294,15.4,18.1,53,0.00,,---,0.00,VWS V14.01,2013-06-30 15:27:00,
2013-06-30 17:32:00,69.6,51.8,29.94,West,266,13.9,15.2,53,0.00,,---,0.00,VWS V14.01,2013-06-30 15:32:00,
2013-06-30 17:37:00,69.4,51.1,29.94,WNW,287,14.3,15.2,52,0.00,,---,0.00,VWS V14.01,2013-06-30 15:37:00,
2013-06-30 17:42:00,69.1,50.2,29.97,West,275,12.1,18.6,51,0.00,,---,0.00,VWS V14.01,2013-06-30 15:42:00,
2013-06-30 17:47:00,69.3,50.9,29.97,West,267,18.6,18.6,52,0.00,,---,0.00,VWS V14.01,2013-06-30 15:47:00,
2013-06-30 17:52:00,69.3,50.9,29.97,WNW,283,10.1,12.5,52,0.00,,---,0.00,VWS V14.01,2013-06-30 15:52:00,
2013-06-30 17:57:00,69.3,50.9,29.94,West,259,9.6,15.4,52,0.00,,---,0.00,VWS V14.01,2013-06-30 15:57:00,
2013-06-30 18:02:00,69.3,50.9,29.94,NW,315,8.3,14.3,52,0.00,,---,0.00,VWS V14.01,2013-06-30 16:02:00,
2013-06-30 18:07:00,68.9,50.0,29.94,West,274,19.9,20.6,51,0.00,,---,0.00,VWS V14.01,2013-06-30 16:07:00,
2013-06-30 18:12:00,68.7,50.4,29.94,West,269,6.9,18.6,52,0.00,,---,0.00,VWS V14.01,2013-06-30 16:12:00,
2013-06-30 18:17:00,68.5,50.8,29.94,NW,309,12.1,18.6,53,0.00,,---,0.00,VWS V14.01,2013-06-30 16:17:00,
2013-06-30 18:22:00,68.4,50.1,29.94,WNW,303,15.2,15.2,52,0.00,,---,0.00,VWS V14.01,2013-06-30 16:22:00,
2013-06-30 18:27:00,68.4,50.1,29.97,SE,131,5.4,14.3,52,0.00,,---,0.00,VWS V14.01,2013-06-30 16:27:00,
2013-06-30 18:32:00,68.4,50.6,29.97,West,270,9.2,16.8,53,0.00,,---,0.00,VWS V14.01,2013-06-30 16:32:00,
2013-06-30 18:37:00,68.4,50.1,29.97,West,274,13.4,13.4,52,0.00,,---,0.00,VWS V14.01,2013-06-30 16:37:00,
2013-06-30 18:42:00,68.4,50.1,29.97,West,279,11.2,11.2,52,0.00,,---,0.00,VWS V14.01,2013-06-30 16:42:00,
2013-06-30 18:47:00,68.2,49.9,29.97,West,268,18.6,18.6,52,0.00,,---,0.00,VWS V14.01,2013-06-30 16:47:00,
2013-06-30 18:52:00,67.8,49.6,29.97,West,277,13.4,15.2,52,0.00,,---,0.00,VWS V14.01,2013-06-30 16:52:00,
2013-06-30 18:57:00,67.6,49.4,29.97,WNW,294,14.3,14.3,52,0.00,,---,0.00,VWS V14.01,2013-06-30 16:57:00,
2013-06-30 19:02:00,67.6,49.9,29.97,SE,143,9.2,15.9,53,0.00,,---,0.00,VWS V14.01,2013-06-30 17:02:00,
2013-06-30 19:07:00,67.6,49.9,29.97,SSE,150,5.4,15.2,53,0.00,,---,0.00,VWS V14.01,2013-06-30 17:07:00,
2013-06-30 19:12:00,67.6,49.9,29.94,North,5,5.8,15.4,53,0.00,,---,0.00,VWS V14.01,2013-06-30 17:12:00,
2013-06-30 19:17:00,67.5,49.8,29.94,WNW,284,11.0,12.1,53,0.00,,---,0.00,VWS V14.01,2013-06-30 17:17:00,
2013-06-30 19:22:00,67.5,49.8,29.94,WNW,293,13.0,19.9,53,0.00,,---,0.00,VWS V14.01,2013-06-30 17:22:00,
2013-06-30 19:27:00,67.5,49.8,29.97,West,275,13.9,16.3,53,0.00,,---,0.00,VWS V14.01,2013-06-30 17:27:00,
2013-06-30 19:32:00,67.1,48.9,29.97,WNW,298,9.6,13.0,52,0.00,,---,0.00,VWS V14.01,2013-06-30 17:32:00,
2013-06-30 19:37:00,66.7,49.1,29.97,WNW,288,8.7,15.2,53,0.00,,---,0.00,VWS V14.01,2013-06-30 17:37:00,
2013-06-30 19:42:00,66.7,49.1,29.94,WNW,296,13.0,18.1,53,0.00,,---,0.00,VWS V14.01,2013-06-30 17:42:00,
2013-06-30 19:47:00,66.4,48.8,29.94,WNW,287,11.0,14.3,53,0.00,,---,0.00,VWS V14.01,2013-06-30 17:47:00,
2013-06-30 19:52:00,66.0,48.9,29.94,West,281,9.6,16.3,54,0.00,,---,0.00,VWS V14.01,2013-06-30 17:52:00,
2013-06-30 19:57:00,65.7,49.1,29.97,NW,308,8.3,17.2,55,0.00,,---,0.00,VWS V14.01,2013-06-30 17:57:00,
2013-06-30 20:02:00,65.5,48.9,29.97,NW,306,9.2,13.4,55,0.00,,---,0.00,VWS V14.01,2013-06-30 18:02:00,
2013-06-30 20:07:00,65.3,49.2,29.97,WNW,287,10.1,15.9,56,0.00,,---,0.00,VWS V14.01,2013-06-30 18:07:00,
2013-06-30 20:12:00,64.9,48.9,29.97,WNW,282,10.1,12.5,56,0.00,,---,0.00,VWS V14.01,2013-06-30 18:12:00,
2013-06-30 20:17:00,64.9,48.9,29.97,West,278,11.2,15.2,56,0.00,,---,0.00,VWS V14.01,2013-06-30 18:17:00,
2013-06-30 20:22:00,64.8,48.7,29.97,West,278,5.4,13.0,56,0.00,,---,0.00,VWS V14.01,2013-06-30 18:22:00,
2013-06-30 20:27:00,64.9,49.4,29.97,West,280,9.6,9.6,57,0.00,,---,0.00,VWS V14.01,2013-06-30 18:27:00,
2013-06-30 20:32:00,65.1,49.5,29.97,West,271,7.4,9.2,57,0.00,,---,0.00,VWS V14.01,2013-06-30 18:32:00,
2013-06-30 20:37:00,64.9,48.9,29.97,WNW,285,13.9,14.8,56,0.00,,---,0.00,VWS V14.01,2013-06-30 18:37:00,
2013-06-30 20:42:00,64.6,48.5,29.97,West,274,8.7,12.5,56,0.00,,---,0.00,VWS V14.01,2013-06-30 18:42:00,
2013-06-30 20:47:00,64.4,48.4,29.97,NW,306,10.1,10.5,56,0.00,,---,0.00,VWS V14.01,2013-06-30 18:47:00,
2013-06-30 20:52:00,64.2,48.7,29.97,West,276,8.3,8.3,57,0.00,,---,0.00,VWS V14.01,2013-06-30 18:52:00,
2013-06-30 20:57:00,64.0,48.5,29.97,West,275,9.6,15.4,57,0.00,,---,0.00,VWS V14.01,2013-06-30 18:57:00,
2013-06-30 21:02:00,64.0,48.5,29.97,West,278,8.7,9.6,57,0.00,,---,0.00,VWS V14.01,2013-06-30 19:02:00,
2013-06-30 21:07:00,64.0,48.5,29.97,West,275,12.1,12.1,57,0.00,,---,0.00,VWS V14.01,2013-06-30 19:07:00,
2013-06-30 21:12:00,63.9,47.9,29.97,West,273,7.4,12.1,56,0.00,,---,0.00,VWS V14.01,2013-06-30 19:12:00,
2013-06-30 21:17:00,63.9,47.9,29.97,West,272,15.4,15.4,56,0.00,,---,0.00,VWS V14.01,2013-06-30 19:17:00,
2013-06-30 21:22:00,63.9,47.9,29.97,WNW,293,7.4,13.0,56,0.00,,---,0.00,VWS V14.01,2013-06-30 19:22:00,
2013-06-30 21:27:00,63.7,47.7,29.97,West,260,6.7,9.6,56,0.00,,---,0.00,VWS V14.01,2013-06-30 19:27:00,
2013-06-30 21:32:00,63.3,47.4,29.97,WNW,290,13.0,16.8,56,0.00,,---,0.00,VWS V14.01,2013-06-30 19:32:00,
2013-06-30 21:37:00,63.3,47.8,29.97,WNW,296,13.9,15.2,57,0.00,,---,0.00,VWS V14.01,2013-06-30 19:37:00,
2013-06-30 21:42:00,63.1,47.7,29.97,West,265,11.2,12.5,57,0.00,,---,0.00,VWS V14.01,2013-06-30 19:42:00,
2013-06-30 21:47:00,63.1,47.7,29.97,WNW,287,13.9,14.3,57,0.00,,---,0.00,VWS V14.01,2013-06-30 19:47:00,
2013-06-30 21:52:00,63.0,48.0,29.97,West,276,10.5,15.2,58,0.00,,---,0.00,VWS V14.01,2013-06-30 19:52:00,
2013-06-30 21:57:00,62.8,47.8,29.97,WNW,289,10.1,11.2,58,0.00,,---,0.00,VWS V14.01,2013-06-30 19:57:00,
2013-06-30 22:02:00,62.6,47.6,29.97,West,279,7.4,8.3,58,0.00,,---,0.00,VWS V14.01,2013-06-30 20:02:00,
2013-06-30 22:07:00,62.6,47.6,29.97,WNW,291,6.9,8.3,58,0.00,,---,0.00,VWS V14.01,2013-06-30 20:07:00,
2013-06-30 22:12:00,62.6,47.6,29.97,West,277,2.7,2.7,58,0.00,,---,0.00,VWS V14.01,2013-06-30 20:12:00,
2013-06-30 22:17:00,62.4,47.5,29.97,West,272,4.5,5.8,58,0.00,,---,0.00,VWS V14.01,2013-06-30 20:17:00,
2013-06-30 22:22:00,62.2,47.8,29.97,West,281,5.8,5.8,59,0.00,,---,0.00,VWS V14.01,2013-06-30 20:22:00,
2013-06-30 22:27:00,62.2,47.8,30.00,West,281,3.1,5.8,59,0.00,,---,0.00,VWS V14.01,2013-06-30 20:27:00,
2013-06-30 22:32:00,62.1,47.6,30.00,West,261,4.5,8.3,59,0.00,,---,0.00,VWS V14.01,2013-06-30 20:32:00,
2013-06-30 22:37:00,62.1,47.6,30.00,West,270,6.9,9.2,59,0.00,,---,0.00,VWS V14.01,2013-06-30 20:37:00,
2013-06-30 22:42:00,62.1,47.6,30.00,West,280,4.9,10.1,59,0.00,,---,0.00,VWS V14.01,2013-06-30 20:42:00,
2013-06-30 22:47:00,62.1,47.6,30.00,WNW,282,11.0,12.5,59,0.00,,---,0.00,VWS V14.01,2013-06-30 20:47:00,
2013-06-30 22:52:00,61.9,47.4,30.00,West,271,5.4,10.5,59,0.00,,---,0.00,VWS V14.01,2013-06-30 20:52:00,
2013-06-30 22:57:00,61.9,47.4,30.00,West,269,7.4,9.6,59,0.00,,---,0.00,VWS V14.01,2013-06-30 20:57:00,
2013-06-30 23:02:00,61.9,47.4,30.00,WSW,238,6.3,10.5,59,0.00,,---,0.00,VWS V14.01,2013-06-30 21:02:00,
2013-06-30 23:07:00,61.9,47.4,30.00,West,280,5.4,5.8,59,0.00,,---,0.00,VWS V14.01,2013-06-30 21:07:00,
2013-06-30 23:12:00,61.9,47.0,30.00,West,278,0.0,5.4,58,0.00,,---,0.00,VWS V14.01,2013-06-30 21:12:00,
2013-06-30 23:17:00,61.9,47.0,30.00,West,278,0.0,0.0,58,0.00,,---,0.00,VWS V14.01,2013-06-30 21:17:00,
2013-06-30 23:22:00,61.7,47.2,30.00,WNW,283,4.5,5.8,59,0.00,,---,0.00,VWS V14.01,2013-06-30 21:22:00,
2013-06-30 23:27:00,61.3,46.9,30.00,West,271,5.4,5.8,59,0.00,,---,0.00,VWS V14.01,2013-06-30 21:27:00,
2013-06-30 23:32:00,61.2,46.7,30.00,WNW,286,5.4,5.8,59,0.00,,---,0.00,VWS V14.01,2013-06-30 21:32:00,
2013-06-30 23:37:00,61.0,46.6,30.00,WNW,293,8.3,11.2,59,0.00,,---,0.00,VWS V14.01,2013-06-30 21:37:00,
2013-06-30 23:42:00,61.3,46.5,30.00,West,275,8.3,8.7,58,0.00,,---,0.00,VWS V14.01,2013-06-30 21:42:00,
2013-06-30 23:47:00,61.5,46.2,30.00,WNW,298,11.0,11.0,57,0.00,,---,0.00,VWS V14.01,2013-06-30 21:47:00,
2013-06-30 23:52:00,61.7,45.4,30.00,WNW,288,10.5,14.3,55,0.00,,---,0.00,VWS V14.01,2013-06-30 21:52:00,
2013-06-30 23:57:00,61.7,44.9,30.00,WNW,294,7.8,14.3,54,0.00,,---,0.00,VWS V14.01,2013-06-30 21:57:00,